Location: Launay
(47.2429°N, 1.5727°E)
Time: 21:59:00
(UTC+00:00)

Helios 1A - Pass Details

Date: 19 May 2025
Orbit: 544 x 570 km, 98.3° (Epoch: 03 June)

Event Time Altitude Azimuth Distance (km) Brightness Sun altitude
Rises 20:42:31 0° 12° (NNE) 2,786 6.9 -10.7°
Reaches altitude 10° 20:44:41 10° 10° (N) 1,882 6.1 -10.9°
Maximum altitude 20:48:44 72° 287° (WNW) 602 3.2 -11.4°
Drops below altitude 10° 20:52:44 10° 203° (SSW) 1,854 5.3 -11.9°
Sets 20:54:51 0° 201° (SSW) 2,741 6.1 -12.1°
